[[{"header":{"parameterUnit":"m.s-1","parameterCategory":1,"la1":30.2991,"la2":30.254,"lo1":-89.0895,"lo2":-89.0444,"dy":0.0017,"dx":0.0017,"nx":28,"ny":28,"refTime":"2023-08-31T09:00:00:Z","depth":0,"parameterNumber":2,"parameterNumberName":"U-component_of_WINDS"},"data":[0,0,0,0,0,0,0,0,0,0,0,0,0,0,0,0,0,0,0,0,0,0,0,0,0,0,0,0,0,0,0,0,0,0,0,0,0,0,0,0,0,0,0,0,0,0,0,0,0,0,0,0,0,0,0,0,0,0,0.427,0.427,0,0.4266,0.4265,0.4265,0.4278,0.4279,0.4279,0.428,0.4273,0.4272,0.4272,0,0,0,0,0,0,0,0,0,0,0,0,0,0.429,0.4289,0.427,0.427,0.427,0.4266,0.4265,0.4265,0.4278,0.4279,0.4279,0.428,0.4273,0.4272,0.4272,0,0,0,0,0,0,0,0,0,0,0,0,0,0.4283,0.4289,0.427,0.4276,0.4277,0.4266,0.4265,0.4265,0.4278,0.4279,0.4279,0.428,0.4273,0.4272,0.4271,0.4254,0,0,0.4269,0.4269,0,0,0,0,0,0,0,0,0.4283,0.4282,0.4275,0.4276,0.4276,0.4273,0.427,0.4261,0.4278,0.4278,0.428,0.428,0.4272,0.4272,0.4269,0.4254,0.4253,0.4269,0.4268,0.4268,0.4268,0,0,0,0,0,0,0,0.4283,0.4282,0.4268,0.4275,0.4276,0.4279,0.4278,0.4268,0.4271,0.4278,0.4279,0.4278,0.4273,0.427,0.4269,0.4253,0.4269,0.4268,0.4268,0.4267,0.4223,0.4222,0,0,0,0,0,0,0.4283,0.4282,0.4268,0.4268,0.4281,0.4278,0.4277,0.4274,0.4272,0.4272,0.4277,0.4279,0.4271,0.427,0.4269,0.4248,0.4268,0.4267,0.4267,0.4224,0.4223,0.4222,0,0,0,0,0,0,0.4284,0.4282,0.4269,0.4276,0.4274,0.4277,0.4272,0.4273,0.427,0.4271,0.4272,0.4274,0.4272,0.427,0.4258,0.4248,0.4267,0.4266,0.4224,0.4223,0.4222,0.4205,0,0,0,0,0,0,0.4284,0.4282,0.4275,0.4275,0.4274,0.4258,0.4272,0.4273,0.4269,0.4271,0.4269,0.4269,0.4272,0.4259,0.4257,0.4247,0.4265,0.4225,0.4224,0.4223,0.4206,0.4204,0.4201,0,0,0,0,0,0.4285,0.427,0.4275,0.4273,0.4266,0.4257,0.4256,0.426,0.4268,0.4262,0.4262,0.4269,0.425,0.4257,0.4255,0.4245,0.4226,0.4224,0.4223,0.4208,0.4204,0.4201,0,0,0,0,0,0,0.4268,0.427,0.4276,0.4261,0.4259,0.4259,0.4251,0.4257,0.4252,0.4253,0.4259,0.4258,0.4244,0.4244,0.4252,0.4228,0.4239,0.4237,0.4228,0.4225,0.4222,0.4222,0.4265,0,0,0,0,0,0.4263,0.4256,0.4258,0.4245,0.4244,0.4248,0.4244,0.4248,0.4246,0.4245,0.4244,0.4242,0.4235,0.423,0.4224,0.4207,0.4207,0.4199,0.4197,0.4194,0.4192,0.4182,0.4179,0.4217,0.4217,0.4217,0,0,0.4251,0.4252,0.4247,0.4242,0.4241,0.4233,0.4247,0.4238,0.4232,0.4243,0.4231,0.4231,0.4228,0.4214,0.4207,0.4213,0.4181,0.4192,0.4191,0.4189,0.418,0.4177,0.4173,0.4216,0.4216,0.4216,0,0,0.4226,0.4227,0.4215,0.4214,0.4213,0.4216,0.4213,0.4213,0.4214,0.4202,0.421,0.4204,0.4192,0.419,0.4187,0.4163,0.4168,0.4161,0.4146,0.4137,0.4134,0.4131,0.4121,0.4118,0.4159,0.4159,0.4159,0,0.4212,0.4201,0.4208,0.4199,0.4196,0.4208,0.4196,0.4195,0.4191,0.4188,0.4195,0.4182,0.4181,0.4165,0.4159,0.4157,0.4154,0.416,0.4134,0.4131,0.4129,0.4119,0.4116,0.4158,0.4158,0.4158,0.4158,0,0.4183,0.4175,0.4166,0.4163,0.416,0.415,0.4155,0.4151,0.4156,0.4158,0.4146,0.4146,0.414,0.4137,0.4141,0.4122,0.4125,0.4133,0.4144,0.4124,0.4115,0.4112,0.4157,0.4157,0.4157,0.4158,0,0,0.4144,0.4147,0.4143,0.4142,0.4142,0.4136,0.4127,0.4122,0.4118,0.4116,0.4107,0.4098,0.4105,0.4102,0.4107,0.4099,0.4079,0.4108,0.4108,0.4101,0.4057,0.4049,0.4045,0.4084,0.4083,0.4083,0.4056,0,0.4118,0.4102,0.4109,0.4092,0.4085,0.4096,0.4088,0.4087,0.4089,0.4084,0.4086,0.4079,0.409,0.4088,0.4081,0.4083,0.407,0.4085,0.4074,0.4074,0.4072,0.4041,0.4032,0.4007,0.4053,0.4053,0.4052,0,0.4084,0.4082,0.4064,0.4066,0.4063,0.4056,0.4052,0.4047,0.4046,0.4049,0.4046,0.4053,0.4043,0.4056,0.4043,0.4053,0.405,0.405,0.4049,0.4046,0.406,0.4035,0.4,0.3995,0.4047,0.4048,0.4048,0,0.4056,0.4048,0.4036,0.4035,0.4038,0.4032,0.4033,0.4033,0.403,0.4027,0.4025,0.4021,0.4018,0.4014,0.402,0.4029,0.4005,0.4019,0.4006,0.4005,0.3998,0.3997,0.3959,0.3999,0.3999,0.3999,0.3999,0,0.4024,0.4012,0.4024,0.4016,0.4003,0.4012,0.3999,0.4002,0.4002,0.3995,0.4006,0.3999,0.4007,0.4001,0.4006,0.3993,0.3992,0.3993,0.3994,0.399,0.399,0.3986,0.3987,0.3998,0.3999,0.3999,0.3999,0,0.3989,0.3996,0.3984,0.3988,0.3989,0.3979,0.3982,0.3976,0.398,0.3971,0.3969,0.3975,0.3968,0.3974,0.3968,0.3971,0.3954,0.3958,0.3954,0.3954,0.394,0.394,0.3896,0.389,0.3936,0.3935,0.3935,0,0.3967,0.3958,0.3962,0.3958,0.3959,0.3953,0.395,0.396,0.3956,0.3956,0.3949,0.3943,0.3939,0.3928,0.3931,0.3927,0.393,0.3915,0.3929,0.3926,0.3927,0.3926,0.3925,0.3911,0.391,0.391,0.3909,0,0.3926,0.3931,0.3927,0.3924,0.3921,0.3919,0.3918,0.3914,0.3924,0.392,0.3913,0.3911,0.3905,0.3899,0.3895,0.3896,0.3903,0.3906,0.3902,0.3897,0.3894,0.3893,0.3943,0.3906,0.3906,0.3906,0.3906,0.3907,0.3895,0.3888,0.389,0.3885,0.3886,0.3885,0.3879,0.3883,0.3878,0.3874,0.3881,0.3873,0.3874,0.387,0.387,0.3864,0.387,0.3865,0.3863,0.3861,0.3858,0.3897,0.3863,0.3864,0.3864,0.3864,0.3864,0,0.3854,0.3856,0.3852,0.3851,0.3847,0.3857,0.3857,0.3853,0.3846,0.3847,0.3843,0.3836,0.3831,0.3835,0.3831,0.3825,0.3828,0.3823,0.3822,0.3822,0.3854,0.3856,0.382,0.382,0.382,0.382,0.382,0.382,0.3832,0.382,0.3825,0.3814,0.3816,0.3809,0.3808,0.3807,0.3808,0.38,0.3796,0.3799,0.3801,0.3797,0.3793,0.3794,0.3791,0.3784,0.3786,0.3816,0.382,0.3824,0.3826,0.3784,0.3784,0.3755,0.3755,0.3754]},{"header":{"parameterUnit":"m.s-1","parameterCategory":1,"la1":30.2991,"la2":30.254,"lo1":-89.0895,"lo2":-89.0444,"dy":0.0017,"dx":0.0017,"nx":28,"ny":28,"refTime":"2023-08-31T09:00:00:Z","depth":0,"parameterNumber":3,"parameterNumberName":"V-component_of_WINDS"},"data":[0,0,0,0,0,0,0,0,0,0,0,0,0,0,0,0,0,0,0,0,0,0,0,0,0,0,0,0,0,0,0,0,0,0,0,0,0,0,0,0,0,0,0,0,0,0,0,0,0,0,0,0,0,0,0,0,0,0,-4.4901,-4.4902,0,-4.5034,-4.5035,-4.5037,-4.5001,-4.4998,-4.4995,-4.4993,-4.5125,-4.5131,-4.5136,0,0,0,0,0,0,0,0,0,0,0,0,0,-4.4611,-4.4616,-4.49,-4.4902,-4.4904,-4.5034,-4.5035,-4.5037,-4.5001,-4.4998,-4.4995,-4.4992,-4.5123,-4.513,-4.5137,0,0,0,0,0,0,0,0,0,0,0,0,0,-4.4739,-4.4618,-4.49,-4.4902,-4.4903,-4.5033,-4.5035,-4.5038,-4.5002,-4.4998,-4.4994,-4.499,-4.512,-4.5129,-4.5138,-4.5273,0,0,-4.5165,-4.5169,0,0,0,0,0,0,0,0,-4.4732,-4.475,-4.49,-4.4902,-4.4904,-4.4997,-4.4981,-4.5117,-4.5003,-4.4964,-4.4993,-4.4988,-4.5085,-4.5097,-4.513,-4.528,-4.5285,-4.5166,-4.5172,-4.5176,-4.5178,0,0,0,0,0,0,0,-4.4723,-4.4744,-4.4953,-4.4902,-4.4904,-4.4894,-4.4908,-4.5007,-4.5045,-4.4967,-4.4965,-4.4982,-4.5085,-4.5122,-4.5133,-4.5287,-4.5166,-4.5174,-4.518,-4.5183,-4.5554,-4.5559,0,0,0,0,0,0,-4.4713,-4.4737,-4.4949,-4.4957,-4.4806,-4.4903,-4.4918,-4.4971,-4.5044,-4.5052,-4.4985,-4.4979,-4.5108,-4.5123,-4.5138,-4.5301,-4.5175,-4.5184,-4.5189,-4.555,-4.5555,-4.556,0,0,0,0,0,0,-4.4707,-4.4733,-4.4943,-4.4847,-4.4873,-4.4912,-4.4971,-4.4975,-4.5012,-4.5057,-4.5064,-4.5015,-4.5106,-4.5125,-4.524,-4.5305,-4.5188,-4.5196,-4.5545,-4.5552,-4.5558,-4.563,0,0,0,0,0,0,-4.4699,-4.4731,-4.4784,-4.4848,-4.4878,-4.5045,-4.4975,-4.4981,-4.5028,-4.5022,-4.5088,-4.5095,-4.5104,-4.5227,-4.5249,-4.5316,-4.5203,-4.5539,-4.5548,-4.5556,-4.5622,-4.5638,-4.5652,0,0,0,0,0,-4.4689,-4.4797,-4.4786,-4.4812,-4.4945,-4.5049,-4.5066,-4.5076,-4.5034,-4.5086,-4.5116,-4.5093,-4.5295,-4.5239,-4.5264,-4.5334,-4.5535,-4.5545,-4.5555,-4.5615,-4.5635,-4.5652,0,0,0,0,0,0,-4.4738,-4.4806,-4.4794,-4.4927,-4.4983,-4.5043,-4.511,-4.5097,-4.5165,-4.5156,-4.5164,-4.5179,-4.5298,-4.5327,-4.5264,-4.5469,-4.5408,-4.5424,-4.5445,-4.5465,-4.548,-4.547,-4.5211,0,0,0,0,0,-4.4764,-4.4845,-4.4899,-4.5011,-4.504,-4.507,-4.5116,-4.5119,-4.5176,-4.5199,-4.5237,-4.5292,-4.5368,-4.5418,-4.549,-4.5626,-4.5639,-4.5686,-4.5701,-4.5713,-4.5726,-4.58,-4.5822,-4.5593,-4.5593,-4.5593,0,0,-4.4819,-4.4866,-4.4916,-4.5022,-4.5065,-4.5147,-4.509,-4.5179,-4.524,-4.5212,-4.5324,-4.5354,-4.5416,-4.5542,-4.5599,-4.557,-4.5793,-4.5726,-4.5735,-4.5742,-4.5813,-4.5834,-4.5854,-4.56,-4.5599,-4.5598,0,0,-4.4961,-4.5005,-4.5103,-4.5149,-4.5216,-4.5236,-4.5259,-4.5322,-4.5341,-4.5454,-4.5435,-4.5507,-4.5637,-4.5683,-4.5723,-4.5883,-4.5864,-4.5906,-4.5985,-4.6057,-4.6075,-4.6091,-4.6148,-4.6169,-4.5919,-4.592,-4.592,0,-4.502,-4.5144,-4.5155,-4.5246,-4.5293,-4.5274,-4.5373,-4.5416,-4.5503,-4.5535,-4.5502,-4.5666,-4.5706,-4.5843,-4.5882,-4.5915,-4.5942,-4.5899,-4.6072,-4.6088,-4.6103,-4.6158,-4.6179,-4.5924,-4.5924,-4.5923,-4.5923,0,-4.5214,-4.53,-4.5371,-4.5458,-4.5513,-4.5607,-4.5631,-4.5685,-4.5684,-4.5707,-4.5821,-4.5869,-4.5952,-4.5984,-4.5983,-4.6121,-4.6101,-4.607,-4.6009,-4.613,-4.6181,-4.6202,-4.5931,-4.5929,-4.5928,-4.5927,0,0,-4.539,-4.5482,-4.5508,-4.5547,-4.5621,-4.5687,-4.578,-4.5862,-4.5908,-4.5969,-4.6047,-4.6159,-4.6131,-4.6177,-4.618,-4.6243,-4.6367,-4.6205,-4.6206,-4.6233,-4.6522,-4.6545,-4.6569,-4.6356,-4.636,-4.6363,-4.6517,0,-4.5538,-4.5705,-4.5717,-4.5867,-4.5946,-4.593,-4.6011,-4.6064,-4.6088,-4.6158,-4.6184,-4.6263,-4.6221,-4.6248,-4.631,-4.6339,-4.6425,-4.6328,-4.6427,-4.6431,-4.6412,-4.6596,-4.6621,-4.6764,-4.6537,-4.6541,-4.6543,0,-4.5734,-4.5802,-4.5961,-4.6023,-4.6057,-4.613,-4.6207,-4.6274,-4.6334,-4.6347,-4.6399,-4.6394,-4.6489,-4.6425,-4.6555,-4.6489,-4.653,-4.6551,-4.6556,-4.6566,-4.6494,-4.6611,-4.681,-4.6832,-4.6575,-4.6572,-4.657,0,-4.5846,-4.5978,-4.609,-4.6124,-4.62,-4.6252,-4.6285,-4.6341,-4.639,-4.6456,-4.6488,-4.6564,-4.6605,-4.6664,-4.6679,-4.6631,-4.6809,-4.6746,-4.6822,-4.6821,-4.686,-4.6857,-4.7068,-4.6886,-4.6886,-4.6886,-4.6885,0,-4.6011,-4.6108,-4.6142,-4.621,-4.6319,-4.6332,-4.6438,-4.6468,-4.6519,-4.6592,-4.6581,-4.665,-4.6667,-4.6738,-4.6751,-4.6857,-4.6875,-4.6888,-4.689,-4.6889,-4.6887,-4.6916,-4.6906,-4.6891,-4.689,-4.6889,-4.6888,0,-4.6155,-4.6181,-4.6302,-4.6365,-4.6383,-4.646,-4.6513,-4.6578,-4.6601,-4.6694,-4.6717,-4.6753,-4.6837,-4.6858,-4.6957,-4.6966,-4.7091,-4.7084,-4.7072,-4.7071,-4.7145,-4.7138,-4.7382,-4.7415,-4.7212,-4.7213,-4.7215,0,-4.6258,-4.6333,-4.6404,-4.6454,-4.649,-4.657,-4.662,-4.6635,-4.6688,-4.6762,-4.6818,-4.6901,-4.6969,-4.7103,-4.7137,-4.7213,-4.7208,-4.7288,-4.7219,-4.7216,-4.7209,-4.7204,-4.7212,-4.7301,-4.7303,-4.7305,-4.7306,0,-4.6439,-4.6448,-4.6522,-4.6601,-4.6661,-4.6724,-4.6783,-4.6824,-4.6847,-4.6906,-4.6993,-4.7046,-4.7148,-4.7231,-4.7308,-4.7341,-4.7328,-4.7328,-4.7349,-4.7349,-4.7339,-4.7346,-4.7108,-4.7322,-4.7321,-4.7319,-4.7319,-4.7318,-4.6566,-4.6631,-4.6692,-4.6775,-4.6821,-4.6878,-4.6943,-4.6974,-4.7048,-4.7134,-4.7138,-4.7232,-4.729,-4.7392,-4.743,-4.7503,-4.7478,-4.7509,-4.7517,-4.7525,-4.7531,-4.7328,-4.7517,-4.7516,-4.7516,-4.7516,-4.7515,0,-4.6746,-4.6784,-4.686,-4.6945,-4.7009,-4.6993,-4.7058,-4.7113,-4.7197,-4.7252,-4.732,-4.7419,-4.7499,-4.754,-4.7619,-4.767,-4.7666,-4.769,-4.7686,-4.7694,-4.7549,-4.7522,-4.7692,-4.7692,-4.7692,-4.7692,-4.7692,-4.7692,-4.6847,-4.6958,-4.6975,-4.7109,-4.7146,-4.724,-4.7278,-4.733,-4.7374,-4.7487,-4.7554,-4.7581,-4.763,-4.7713,-4.7786,-4.7795,-4.7825,-4.7853,-4.7859,-4.7722,-4.7704,-4.7687,-4.7663,-4.7859,-4.7859,-4.7999,-4.8,-4.8001]}]]